TAM3188 SBEG-SBBE

Flight info

Callsign TAM3188
Flight time 1h 37m
Altitude 37000
Route XOLOK UZ81 DADUD DCT PAKUT
Aircraft A320/M-SDE3FGHIRWY/LB1

Departure

Time 2026-05-06 01:28
Airport Eduardo Gomes International Airport (SBEG)

Arrival

Time 2026-05-06 03:05
Airport Val de Cans/Júlio Cezar Ribeiro International Airport (SBBE)
Time Latitude Longitude Altitude Speed Heading
2026-05-06 01:02 -3.03270 -60.04540 270 ft 0 kts 355°
2026-05-06 01:18 -3.03292 -60.04537 270 ft 4 kts 349°
2026-05-06 01:19 -3.03318 -60.04531 270 ft 4 kts 337°
2026-05-06 01:19 -3.03340 -60.04517 270 ft 4 kts 307°
2026-05-06 01:19 -3.03347 -60.04500 270 ft 1 kts 261°
2026-05-06 01:19 -3.03346 -60.04496 270 ft 0 kts 261°
2026-05-06 01:22 -3.03346 -60.04497 270 ft 0 kts 261°
2026-05-06 01:22 -3.03351 -60.04522 270 ft 5 kts 259°
2026-05-06 01:22 -3.03358 -60.04560 270 ft 6 kts 259°
2026-05-06 01:22 -3.03358 -60.04610 270 ft 10 kts 274°
2026-05-06 01:23 -3.03353 -60.04686 270 ft 11 kts 274°
2026-05-06 01:23 -3.03362 -60.04764 270 ft 11 kts 253°
2026-05-06 01:23 -3.03411 -60.04828 270 ft 12 kts 226°
2026-05-06 01:23 -3.03473 -60.04881 270 ft 12 kts 214°
2026-05-06 01:24 -3.03540 -60.04933 270 ft 12 kts 224°
2026-05-06 01:24 -3.03581 -60.05008 270 ft 13 kts 253°
2026-05-06 01:24 -3.03606 -60.05094 270 ft 13 kts 247°
2026-05-06 01:24 -3.03630 -60.05181 270 ft 13 kts 254°
2026-05-06 01:25 -3.03654 -60.05272 270 ft 14 kts 256°
2026-05-06 01:25 -3.03674 -60.05368 270 ft 14 kts 259°
2026-05-06 01:25 -3.03689 -60.05470 270 ft 15 kts 263°
2026-05-06 01:25 -3.03692 -60.05581 270 ft 17 kts 270°
2026-05-06 01:26 -3.03692 -60.05702 270 ft 18 kts 270°
2026-05-06 01:26 -3.03691 -60.05835 270 ft 20 kts 270°
2026-05-06 01:26 -3.03689 -60.05985 270 ft 23 kts 270°
2026-05-06 01:26 -3.03692 -60.06104 270 ft 9 kts 263°
2026-05-06 01:27 -3.03725 -60.06166 270 ft 11 kts 218°
2026-05-06 01:27 -3.03807 -60.06173 271 ft 14 kts 168°
2026-05-06 01:27 -3.03860 -60.06019 271 ft 50 kts 90°
2026-05-06 01:27 -3.03857 -60.05438 269 ft 114 kts 90°
2026-05-06 01:28 -3.03866 -60.04479 309 ft 156 kts 89°
2026-05-06 01:28 -3.03881 -60.03416 884 ft 152 kts 88°
2026-05-06 01:28 -3.03867 -60.02365 1484 ft 151 kts 89°
2026-05-06 01:28 -3.03873 -60.01279 1910 ft 163 kts 90°
2026-05-06 01:29 -3.03883 -60.00078 2243 ft 181 kts 89°
2026-05-06 01:29 -3.03877 -59.98771 2613 ft 196 kts 89°
2026-05-06 01:29 -3.03898 -59.97312 2860 ft 223 kts 92°
2026-05-06 01:29 -3.03988 -59.95672 3241 ft 248 kts 94°
2026-05-06 01:30 -3.04147 -59.93878 3819 ft 263 kts 94°
2026-05-06 01:30 -3.04259 -59.92061 4842 ft 261 kts 92°
2026-05-06 01:30 -3.04318 -59.90250 5809 ft 260 kts 91°
2026-05-06 01:30 -3.04332 -59.88439 6736 ft 261 kts 90°
2026-05-06 01:31 -3.04336 -59.86617 7564 ft 263 kts 91°
2026-05-06 01:31 -3.04370 -59.84787 8298 ft 269 kts 92°
2026-05-06 01:31 -3.04432 -59.82874 9067 ft 274 kts 92°
2026-05-06 01:31 -3.04504 -59.80953 9845 ft 278 kts 92°
2026-05-06 01:32 -3.04580 -59.78983 10299 ft 293 kts 92°
2026-05-06 01:32 -3.04658 -59.76868 10476 ft 316 kts 92°
2026-05-06 01:32 -3.04737 -59.74618 10833 ft 329 kts 92°
2026-05-06 01:32 -3.04814 -59.72340 11405 ft 334 kts 92°
2026-05-06 01:33 -3.04892 -59.69996 12022 ft 338 kts 92°
2026-05-06 01:33 -3.04976 -59.67633 12646 ft 342 kts 92°
2026-05-06 01:33 -3.05063 -59.65235 13258 ft 346 kts 92°
2026-05-06 01:33 -3.05150 -59.62816 13855 ft 350 kts 92°
2026-05-06 01:34 -3.05237 -59.60371 14385 ft 353 kts 92°
2026-05-06 01:34 -3.05325 -59.57906 14937 ft 356 kts 92°
2026-05-06 01:34 -3.05411 -59.55421 15478 ft 359 kts 92°
2026-05-06 01:34 -3.05498 -59.52914 16022 ft 362 kts 92°
2026-05-06 01:35 -3.05589 -59.50379 16555 ft 365 kts 92°
2026-05-06 01:35 -3.05679 -59.47825 17091 ft 368 kts 92°
2026-05-06 01:35 -3.05769 -59.45258 17621 ft 372 kts 92°
2026-05-06 01:35 -3.05861 -59.42662 18155 ft 375 kts 92°
2026-05-06 01:36 -3.05955 -59.40045 18631 ft 378 kts 92°
2026-05-06 01:36 -3.06049 -59.37410 19092 ft 381 kts 92°
2026-05-06 01:36 -3.06142 -59.34751 19566 ft 384 kts 92°
2026-05-06 01:36 -3.06233 -59.32074 20042 ft 386 kts 92°
2026-05-06 01:37 -3.06324 -59.29373 20523 ft 389 kts 92°
2026-05-06 01:37 -3.06415 -59.26658 21003 ft 392 kts 92°
2026-05-06 01:37 -3.06508 -59.23956 21474 ft 395 kts 92°
2026-05-06 01:37 -3.06603 -59.21201 21942 ft 398 kts 92°
2026-05-06 01:38 -3.06701 -59.18425 22400 ft 400 kts 92°
2026-05-06 01:38 -3.06800 -59.15636 22844 ft 403 kts 92°
2026-05-06 01:38 -3.06898 -59.12819 23274 ft 406 kts 92°
2026-05-06 01:38 -3.06993 -59.09992 23674 ft 408 kts 92°
2026-05-06 01:39 -3.07090 -59.07143 24019 ft 411 kts 92°
2026-05-06 01:39 -3.07190 -59.04279 24361 ft 413 kts 92°
2026-05-06 01:39 -3.07288 -59.01398 24680 ft 416 kts 92°
2026-05-06 01:39 -3.07384 -58.98496 24997 ft 419 kts 92°
2026-05-06 01:40 -3.07484 -58.95578 25315 ft 421 kts 92°
2026-05-06 01:40 -3.07586 -58.92637 25636 ft 423 kts 92°
2026-05-06 01:40 -3.07690 -58.89688 25963 ft 426 kts 92°
2026-05-06 01:40 -3.07795 -58.86709 26124 ft 432 kts 92°
2026-05-06 01:41 -3.07901 -58.83682 26244 ft 439 kts 92°
2026-05-06 01:41 -3.08009 -58.80608 26370 ft 445 kts 92°
2026-05-06 01:41 -3.08117 -58.77500 26486 ft 450 kts 92°
2026-05-06 01:41 -3.08224 -58.74350 26606 ft 455 kts 92°
2026-05-06 01:42 -3.08331 -58.71167 26725 ft 460 kts 92°
2026-05-06 01:42 -3.08438 -58.67952 26847 ft 464 kts 92°
2026-05-06 01:42 -3.08547 -58.64715 26973 ft 468 kts 92°
2026-05-06 01:42 -3.08661 -58.61496 27157 ft 470 kts 92°
2026-05-06 01:43 -3.08777 -58.58189 27425 ft 470 kts 92°
2026-05-06 01:43 -3.08888 -58.54968 27711 ft 470 kts 92°
2026-05-06 01:43 -3.08997 -58.51700 28013 ft 469 kts 92°
2026-05-06 01:43 -3.09107 -58.48441 28329 ft 469 kts 92°
2026-05-06 01:44 -3.09218 -58.45185 28655 ft 468 kts 92°
2026-05-06 01:44 -3.09331 -58.41926 28993 ft 467 kts 92°
2026-05-06 01:44 -3.09434 -58.38678 29326 ft 467 kts 91°
2026-05-06 01:44 -3.09232 -58.35434 29662 ft 467 kts 82°
2026-05-06 01:45 -3.08551 -58.32253 29996 ft 468 kts 77°
2026-05-06 01:45 -3.07764 -58.29099 30298 ft 467 kts 77°
2026-05-06 01:45 -3.06983 -58.25944 30589 ft 467 kts 77°
2026-05-06 01:45 -3.06209 -58.22791 30885 ft 466 kts 77°
2026-05-06 01:46 -3.05439 -58.19644 31197 ft 465 kts 77°
2026-05-06 01:46 -3.04677 -58.16543 31513 ft 464 kts 77°
2026-05-06 01:46 -3.03906 -58.13410 31829 ft 464 kts 77°
2026-05-06 01:46 -3.03137 -58.10275 32139 ft 463 kts 76°
2026-05-06 01:47 -3.02368 -58.07147 32453 ft 463 kts 76°
2026-05-06 01:47 -3.01596 -58.04021 32776 ft 462 kts 76°
2026-05-06 01:47 -3.00825 -58.00905 33109 ft 462 kts 76°
2026-05-06 01:47 -3.00055 -57.97788 33438 ft 461 kts 76°
2026-05-06 01:48 -2.99285 -57.94676 33774 ft 461 kts 76°
2026-05-06 01:48 -2.98518 -57.91563 34101 ft 461 kts 76°
2026-05-06 01:48 -2.97754 -57.88448 34355 ft 461 kts 76°
2026-05-06 01:48 -2.96990 -57.85338 34654 ft 461 kts 76°
2026-05-06 01:49 -2.96222 -57.82219 34940 ft 460 kts 76°
2026-05-06 01:49 -2.95458 -57.79118 35247 ft 459 kts 76°
2026-05-06 01:49 -2.94693 -57.76020 35525 ft 459 kts 76°
2026-05-06 01:49 -2.93928 -57.72923 35825 ft 458 kts 76°
2026-05-06 01:50 -2.93165 -57.69831 36113 ft 457 kts 76°
2026-05-06 01:50 -2.92407 -57.66751 36399 ft 456 kts 76°
2026-05-06 01:50 -2.91648 -57.63667 36661 ft 456 kts 76°
2026-05-06 01:50 -2.90890 -57.60586 36908 ft 456 kts 76°
2026-05-06 01:51 -2.89508 -57.54990 37029 ft 460 kts 76°
2026-05-06 01:51 -2.87969 -57.48756 37027 ft 462 kts 76°
2026-05-06 01:52 -2.86422 -57.42495 37027 ft 466 kts 76°
2026-05-06 01:52 -2.84869 -57.36181 37028 ft 468 kts 76°
2026-05-06 01:53 -2.83301 -57.29853 37029 ft 469 kts 76°
2026-05-06 01:53 -2.81729 -57.23519 37034 ft 470 kts 76°
2026-05-06 01:54 -2.80165 -57.17176 37043 ft 470 kts 76°
2026-05-06 01:54 -2.78604 -57.10851 37044 ft 470 kts 76°
2026-05-06 01:55 -2.77032 -57.04495 37043 ft 471 kts 76°
2026-05-06 01:55 -2.75461 -56.98176 37045 ft 471 kts 76°
2026-05-06 01:56 -2.73882 -56.91822 37047 ft 471 kts 76°
2026-05-06 01:56 -2.72309 -56.85454 37048 ft 471 kts 76°
2026-05-06 01:57 -2.70740 -56.79088 37045 ft 472 kts 76°
2026-05-06 01:57 -2.69166 -56.72714 37047 ft 472 kts 76°
2026-05-06 01:58 -2.67593 -56.66334 37046 ft 473 kts 76°
2026-05-06 01:58 -2.66007 -56.59945 37050 ft 473 kts 76°
2026-05-06 01:59 -2.64435 -56.53601 37048 ft 473 kts 76°
2026-05-06 01:59 -2.62851 -56.47195 37051 ft 474 kts 76°
2026-05-06 02:00 -2.61488 -56.40759 37055 ft 473 kts 83°
2026-05-06 02:00 -2.60731 -56.34216 37057 ft 474 kts 83°
2026-05-06 02:01 -2.59987 -56.27662 37063 ft 474 kts 83°
2026-05-06 02:01 -2.59240 -56.21116 37062 ft 474 kts 83°
2026-05-06 02:02 -2.58494 -56.14573 37063 ft 474 kts 83°
2026-05-06 02:02 -2.57743 -56.08029 37062 ft 474 kts 83°
2026-05-06 02:03 -2.56988 -56.01481 37060 ft 474 kts 83°
2026-05-06 02:03 -2.56235 -55.94972 37061 ft 474 kts 83°
2026-05-06 02:04 -2.55484 -55.88424 37065 ft 474 kts 83°
2026-05-06 02:04 -2.54732 -55.81876 37065 ft 474 kts 83°
2026-05-06 02:05 -2.53980 -55.75327 37069 ft 473 kts 83°
2026-05-06 02:05 -2.53225 -55.68792 37068 ft 473 kts 83°
2026-05-06 02:06 -2.52469 -55.62260 37068 ft 473 kts 83°
2026-05-06 02:06 -2.51716 -55.55723 37062 ft 472 kts 83°
2026-05-06 02:07 -2.50962 -55.49205 37069 ft 472 kts 83°
2026-05-06 02:07 -2.50212 -55.42682 37066 ft 472 kts 83°
2026-05-06 02:08 -2.49452 -55.36166 37066 ft 472 kts 83°
2026-05-06 02:08 -2.48580 -55.29713 37066 ft 471 kts 82°
2026-05-06 02:09 -2.47640 -55.23225 37065 ft 472 kts 81°
2026-05-06 02:09 -2.46716 -55.16724 37063 ft 472 kts 82°
2026-05-06 02:10 -2.45815 -55.10222 37061 ft 472 kts 82°
2026-05-06 02:10 -2.44924 -55.03711 37059 ft 472 kts 82°
2026-05-06 02:11 -2.44028 -54.97200 37059 ft 473 kts 82°
2026-05-06 02:11 -2.43130 -54.90681 37055 ft 473 kts 82°
2026-05-06 02:12 -2.42229 -54.84163 37053 ft 473 kts 82°
2026-05-06 02:12 -2.41325 -54.77635 37053 ft 474 kts 82°
2026-05-06 02:13 -2.40429 -54.71142 37053 ft 474 kts 82°
2026-05-06 02:13 -2.39528 -54.64610 37057 ft 474 kts 82°
2026-05-06 02:14 -2.38625 -54.58073 37062 ft 475 kts 82°
2026-05-06 02:14 -2.37718 -54.51537 37067 ft 475 kts 82°
2026-05-06 02:15 -2.36731 -54.44998 37071 ft 475 kts 81°
2026-05-06 02:15 -2.35636 -54.38479 37074 ft 476 kts 81°
2026-05-06 02:16 -2.34532 -54.31951 37071 ft 476 kts 81°
2026-05-06 02:16 -2.33471 -54.25418 37073 ft 476 kts 81°
2026-05-06 02:17 -2.32418 -54.18882 37077 ft 476 kts 81°
2026-05-06 02:17 -2.31541 -54.13447 37077 ft 476 kts 81°
2026-05-06 02:18 -2.30475 -54.06910 37080 ft 476 kts 81°
2026-05-06 02:18 -2.29406 -54.00373 37079 ft 476 kts 81°
2026-05-06 02:19 -2.28169 -53.92773 37082 ft 476 kts 81°
2026-05-06 02:19 -2.27105 -53.86237 37082 ft 476 kts 81°
2026-05-06 02:20 -2.25682 -53.77492 37084 ft 476 kts 81°
2026-05-06 02:21 -2.24620 -53.71001 37091 ft 476 kts 81°
2026-05-06 02:21 -2.23557 -53.64474 37089 ft 476 kts 81°
2026-05-06 02:22 -2.22497 -53.57951 37085 ft 475 kts 81°
2026-05-06 02:22 -2.21433 -53.51430 37086 ft 475 kts 81°
2026-05-06 02:23 -2.20365 -53.44906 37086 ft 475 kts 81°
2026-05-06 02:23 -2.19302 -53.38388 37084 ft 475 kts 81°
2026-05-06 02:24 -2.18241 -53.31867 37085 ft 475 kts 81°
2026-05-06 02:24 -2.17183 -53.25346 37082 ft 475 kts 81°
2026-05-06 02:25 -2.16108 -53.18819 37080 ft 475 kts 81°
2026-05-06 02:25 -2.15046 -53.12338 37083 ft 475 kts 81°
2026-05-06 02:26 -2.13982 -53.05812 37086 ft 475 kts 81°
2026-05-06 02:26 -2.12927 -52.99285 37086 ft 475 kts 81°
2026-05-06 02:27 -2.11871 -52.92762 37086 ft 475 kts 81°
2026-05-06 02:27 -2.10812 -52.86248 37085 ft 475 kts 81°
2026-05-06 02:28 -2.09747 -52.79739 37082 ft 475 kts 81°
2026-05-06 02:28 -2.08693 -52.73223 37079 ft 475 kts 81°
2026-05-06 02:29 -2.07635 -52.66700 37072 ft 475 kts 81°
2026-05-06 02:29 -2.06570 -52.60183 37072 ft 475 kts 81°
2026-05-06 02:30 -2.05509 -52.53661 37075 ft 475 kts 81°
2026-05-06 02:30 -2.04463 -52.47182 37077 ft 475 kts 81°
2026-05-06 02:31 -2.03396 -52.40620 37076 ft 475 kts 81°
2026-05-06 02:31 -2.02328 -52.34136 37075 ft 475 kts 81°
2026-05-06 02:32 -2.01249 -52.27613 37071 ft 476 kts 81°
2026-05-06 02:32 -2.00173 -52.21084 37072 ft 476 kts 81°
2026-05-06 02:33 -1.99111 -52.14552 37072 ft 476 kts 81°
2026-05-06 02:33 -1.98760 -52.12388 37068 ft 476 kts 81°
2026-05-06 02:34 -1.96964 -52.01475 37066 ft 477 kts 81°
2026-05-06 02:34 -1.95875 -51.94940 37071 ft 477 kts 81°
2026-05-06 02:35 -1.94799 -51.88393 37074 ft 477 kts 81°
2026-05-06 02:35 -1.93737 -51.81886 37068 ft 477 kts 81°
2026-05-06 02:36 -1.92666 -51.75339 37071 ft 477 kts 81°
2026-05-06 02:36 -1.91588 -51.68790 37071 ft 477 kts 81°
2026-05-06 02:37 -1.90498 -51.62239 37069 ft 478 kts 81°
2026-05-06 02:37 -1.89409 -51.55695 37070 ft 478 kts 81°
2026-05-06 02:38 -1.88479 -51.49117 37073 ft 478 kts 84°
2026-05-06 02:38 -1.87698 -51.42523 37070 ft 478 kts 83°
2026-05-06 02:39 -1.86812 -51.35936 37066 ft 478 kts 82°
2026-05-06 02:39 -1.85916 -51.29349 37068 ft 478 kts 83°
2026-05-06 02:40 -1.85044 -51.22762 37077 ft 478 kts 83°
2026-05-06 02:40 -1.84178 -51.16173 37065 ft 478 kts 83°
2026-05-06 02:41 -1.83316 -51.09593 37071 ft 478 kts 83°
2026-05-06 02:41 -1.82449 -51.03042 37069 ft 478 kts 83°
2026-05-06 02:42 -1.81585 -50.96456 37065 ft 478 kts 83°
2026-05-06 02:42 -1.80728 -50.89872 37071 ft 478 kts 83°
2026-05-06 02:43 -1.79867 -50.83287 37072 ft 478 kts 83°
2026-05-06 02:43 -1.79001 -50.76694 37074 ft 478 kts 83°
2026-05-06 02:44 -1.78128 -50.70101 37068 ft 478 kts 83°
2026-05-06 02:44 -1.77266 -50.63513 37066 ft 478 kts 83°
2026-05-06 02:45 -1.76409 -50.56922 37075 ft 478 kts 83°
2026-05-06 02:45 -1.75543 -50.50347 37075 ft 477 kts 83°
2026-05-06 02:46 -1.74681 -50.43765 37071 ft 477 kts 83°
2026-05-06 02:46 -1.73822 -50.37240 37075 ft 476 kts 83°
2026-05-06 02:47 -1.72953 -50.30683 37077 ft 476 kts 83°
2026-05-06 02:47 -1.72088 -50.24123 36585 ft 472 kts 83°
2026-05-06 02:47 -1.71664 -50.20873 36342 ft 473 kts 83°
2026-05-06 02:48 -1.71243 -50.17618 36100 ft 473 kts 83°
2026-05-06 02:48 -1.70818 -50.14344 35859 ft 474 kts 83°
2026-05-06 02:48 -1.70393 -50.11073 35624 ft 475 kts 83°
2026-05-06 02:48 -1.69965 -50.07805 35390 ft 475 kts 83°
2026-05-06 02:49 -1.69534 -50.04526 35164 ft 476 kts 83°
2026-05-06 02:49 -1.69099 -50.01251 34929 ft 476 kts 83°
2026-05-06 02:49 -1.68659 -49.97967 34701 ft 476 kts 83°
2026-05-06 02:49 -1.68218 -49.94683 34477 ft 477 kts 83°
2026-05-06 02:50 -1.67780 -49.91402 33925 ft 475 kts 83°
2026-05-06 02:50 -1.67351 -49.88126 32936 ft 476 kts 83°
2026-05-06 02:50 -1.66925 -49.84845 31950 ft 477 kts 83°
2026-05-06 02:50 -1.66497 -49.81557 30959 ft 477 kts 83°
2026-05-06 02:51 -1.66068 -49.78265 29926 ft 477 kts 83°
2026-05-06 02:51 -1.65638 -49.74977 29056 ft 476 kts 83°
2026-05-06 02:51 -1.65204 -49.71676 28229 ft 481 kts 83°
2026-05-06 02:51 -1.64767 -49.68347 27412 ft 483 kts 83°
2026-05-06 02:52 -1.64324 -49.65007 26617 ft 486 kts 83°
2026-05-06 02:52 -1.63884 -49.61699 25856 ft 487 kts 83°
2026-05-06 02:52 -1.63438 -49.58333 25102 ft 489 kts 83°
2026-05-06 02:52 -1.62987 -49.54910 24357 ft 490 kts 83°
2026-05-06 02:53 -1.62551 -49.51595 23659 ft 486 kts 83°
2026-05-06 02:53 -1.62111 -49.48264 22840 ft 481 kts 83°
2026-05-06 02:53 -1.61675 -49.44963 22222 ft 477 kts 83°
2026-05-06 02:53 -1.61245 -49.41697 21636 ft 472 kts 83°
2026-05-06 02:54 -1.60819 -49.38454 21056 ft 468 kts 83°
2026-05-06 02:54 -1.60396 -49.35244 20488 ft 464 kts 83°
2026-05-06 02:54 -1.59977 -49.32061 19932 ft 460 kts 83°
2026-05-06 02:54 -1.59561 -49.28907 19385 ft 456 kts 83°
2026-05-06 02:55 -1.59147 -49.25771 18845 ft 452 kts 83°
2026-05-06 02:55 -1.58737 -49.22673 18310 ft 449 kts 83°
2026-05-06 02:55 -1.58329 -49.19591 17698 ft 445 kts 83°
2026-05-06 02:55 -1.57926 -49.16540 17086 ft 440 kts 83°
2026-05-06 02:56 -1.57526 -49.13517 16396 ft 435 kts 83°
2026-05-06 02:56 -1.57131 -49.10531 15722 ft 430 kts 83°
2026-05-06 02:56 -1.56742 -49.07586 15065 ft 426 kts 83°
2026-05-06 02:56 -1.56357 -49.04667 14424 ft 421 kts 83°
2026-05-06 02:57 -1.55980 -49.01785 13779 ft 415 kts 83°
2026-05-06 02:57 -1.55606 -48.98942 13066 ft 410 kts 83°
2026-05-06 02:57 -1.55234 -48.96138 12388 ft 404 kts 83°
2026-05-06 02:57 -1.54866 -48.93379 11692 ft 398 kts 83°
2026-05-06 02:58 -1.54505 -48.90648 10985 ft 393 kts 83°
2026-05-06 02:58 -1.54150 -48.87952 10275 ft 388 kts 83°
2026-05-06 02:58 -1.53799 -48.85295 9518 ft 383 kts 83°
2026-05-06 02:58 -1.53453 -48.82671 8727 ft 378 kts 83°
2026-05-06 02:59 -1.53112 -48.80088 8092 ft 372 kts 83°
2026-05-06 02:59 -1.52775 -48.77527 7394 ft 368 kts 83°
2026-05-06 02:59 -1.52447 -48.75020 6811 ft 359 kts 83°
2026-05-06 02:59 -1.52131 -48.72617 6402 ft 346 kts 83°
2026-05-06 03:00 -1.51822 -48.70273 5954 ft 335 kts 83°
2026-05-06 03:00 -1.51520 -48.68013 5495 ft 315 kts 83°
2026-05-06 03:00 -1.51240 -48.65911 4996 ft 296 kts 83°
2026-05-06 03:00 -1.50977 -48.63919 4484 ft 283 kts 84°
2026-05-06 03:01 -1.50725 -48.62009 3978 ft 272 kts 83°
2026-05-06 03:01 -1.50235 -48.60223 3408 ft 267 kts 62°
2026-05-06 03:01 -1.49043 -48.58802 2844 ft 264 kts 47°
2026-05-06 03:01 -1.47778 -48.57553 2469 ft 243 kts 47°
2026-05-06 03:02 -1.46653 -48.56431 2175 ft 217 kts 47°
2026-05-06 03:02 -1.45619 -48.55387 1909 ft 204 kts 48°
2026-05-06 03:02 -1.44974 -48.54735 1733 ft 195 kts 48°
2026-05-06 03:02 -1.44060 -48.53813 1508 ft 179 kts 47°
2026-05-06 03:03 -1.43218 -48.52962 1270 ft 162 kts 47°
2026-05-06 03:03 -1.42484 -48.52222 1065 ft 142 kts 49°
2026-05-06 03:03 -1.41595 -48.51324 832 ft 133 kts 48°
2026-05-06 03:03 -1.41161 -48.50886 723 ft 130 kts 46°
2026-05-06 03:04 -1.40512 -48.50230 539 ft 134 kts 44°
2026-05-06 03:04 -1.39854 -48.49563 383 ft 136 kts 44°
2026-05-06 03:04 -1.39189 -48.48886 205 ft 137 kts 43°
2026-05-06 03:04 -1.38522 -48.48217 59 ft 135 kts 43°
2026-05-06 03:05 -1.37930 -48.47623 39 ft 98 kts 45°
2026-05-06 03:05 -1.37534 -48.47223 43 ft 66 kts 45°
2026-05-06 03:05 -1.37274 -48.46966 44 ft 30 kts 40°
2026-05-06 03:05 -1.37202 -48.46903 44 ft 7 kts 130°
2026-05-06 03:06 -1.37294 -48.46968 45 ft 29 kts 224°
2026-05-06 03:06 -1.37492 -48.47167 43 ft 52 kts 227°
2026-05-06 03:06 -1.37772 -48.47460 41 ft 57 kts 225°
2026-05-06 03:06 -1.37975 -48.47618 38 ft 35 kts 191°
2026-05-06 03:07 -1.38219 -48.47643 43 ft 36 kts 185°
2026-05-06 03:07 -1.38475 -48.47666 43 ft 33 kts 185°
2026-05-06 03:07 -1.38641 -48.47687 45 ft 15 kts 206°
2026-05-06 03:07 -1.38666 -48.47774 43 ft 13 kts 266°
2026-05-06 03:08 -1.38718 -48.47798 43 ft 9 kts 188°
2026-05-06 03:08 -1.38773 -48.47809 43 ft 6 kts 214°
2026-05-06 03:08 -1.38808 -48.47845 43 ft 7 kts 230°
2026-05-06 03:08 -1.38832 -48.47872 43 ft 3 kts 225°
2026-05-06 03:09 -1.38846 -48.47887 43 ft 2 kts 226°
2026-05-06 03:09 -1.38847 -48.47887 43 ft 0 kts 225°
2026-05-06 03:09 -1.38846 -48.47887 43 ft 0 kts 225°
2026-05-06 03:10 -1.38847 -48.47887 43 ft 0 kts 225°